EW4443 Weather Reports


time (UTC)temp
C
wind
direction
speed
KPH
gust
KPH
rain 1hr
cm
rain 24hr
cm
rain mn
cm
humidity
%
barometer
mb
20260905022406 35 45 0.0 1.6 0.00 0.00 0.00 37 1008.0
20260905022137 35 45 0.0 0.0 0.00 0.00 0.00 37 1007.3
20260905021407 35 45 0.0 0.0 0.00 0.00 0.00 35 1007.6
20260905020907 35 68 0.0 0.0 0.00 0.00 0.00 37 1007.3
20260905020405 35 68 0.0 0.0 0.00 0.00 0.00 37 1007.6
20260905015907 35 68 0.0 1.6 0.00 0.00 0.00 37 1007.6
20260905015406 35 45 0.0 1.6 0.00 0.00 0.00 35 1007.3
20260905014905 35 68 0.0 0.0 0.00 0.00 0.00 35 1007.6
20260905014406 35 68 0.0 0.0 0.00 0.00 0.00 35 1007.3
20260905013907 35 68 0.0 3.2 0.00 0.00 0.00 35 1007.3
20260905013406 35 68 0.0 3.2 0.00 0.00 0.00 35 1007.3
20260905012906 35 90 0.0 4.8 0.00 0.00 0.00 34 1007.3
20260905012406 36 68 0.0 4.8 0.00 0.00 0.00 34 1007.3
20260905012136 36 338 0.0 1.6 0.00 0.00 0.00 34 1007.3
20260905011406 36 23 0.0 3.2 0.00 0.00 0.00 32 1007.3
20260905010906 36 0 0.0 3.2 0.00 0.00 0.00 34 1007.3
20260905010405 36 0 0.0 0.0 0.00 0.00 0.00 34 1007.3
20260905005906 36 315 0.0 0.0 0.00 0.00 0.00 34 1007.3
20260905005406 36 0 0.0 4.8 0.00 0.00 0.00 34 1007.3
20260905004906 36 90 0.0 4.8 0.00 0.00 0.00 32 1007.3
20260905004407 36 0 0.0 3.2 0.00 0.00 0.00 31 1007.3
20260905003906 36 45 0.0 3.2 0.00 0.00 0.00 30 1007.3
20260905003406 36 90 0.0 4.8 0.00 0.00 0.00 30 1007.3
20260905002905 36 158 0.0 4.8 0.00 0.00 0.00 30 1007.6
20260905002405 37 203 0.0 8.0 0.00 0.00 0.00 30 1007.6
20260905001905 37 158 1.6 8.0 0.00 0.00 0.00 30 1008.0
20260905001405 37 203 0.0 6.4 0.00 0.00 0.00 30 1007.3
20260905001137 37 158 1.6 6.4 0.00 0.00 0.00 30 1007.6
20260905000406 37 180 1.6 8.0 0.00 0.00 0.00 30 1007.6
20260904235907 37 248 1.6 9.7 0.00 0.00 0.00 30 1007.3
20260904235406 37 45 1.6 9.7 0.00 0.00 0.00 30 1007.6
20260904234854 37 270 1.6 8.0 0.00 0.00 0.00 30 1007.6
20260904234618 37 225 1.6 8.0 0.00 0.00 0.00 29 1007.6
20260904233846 37 203 1.6 6.4 0.00 0.00 0.00 30 1007.6
20260904233346 37 248 0.0 4.8 0.00 0.00 0.00 30 1007.6
20260904232847 37 158 1.6 6.4 0.00 0.00 0.00 30 1007.6
20260904232618 37 270 1.6 8.0 0.00 0.00 0.00 30 1008.0
20260904232604 37 270 1.6 8.0 0.00 0.00 0.00 30 1007.6
20260904231347 37 293 1.6 8.0 0.00 0.00 0.00 30 1008.0
20260904230847 37 338 0.0 6.4 0.00 0.00 0.00 31 1007.6
20260904230347 37 203 1.6 9.7 0.00 0.00 0.00 30 1007.6
20260904225846 37 180 1.6 9.7 0.00 0.00 0.00 30 1007.6
20260904225617 37 225 0.0 8.0 0.00 0.00 0.00 30 1007.6
20260904224846 37 180 0.0 12.9 0.00 0.00 0.00 31 1008.0
20260904224347 37 158 3.2 12.9 0.00 0.00 0.00 30 1008.3
20260904223846 36 180 0.0 12.9 0.00 0.00 0.00 34 1008.0
20260904223347 36 180 3.2 12.9 0.00 0.00 0.00 31 1008.3
20260904222847 37 180 1.6 11.3 0.00 0.00 0.00 30 1008.3
20260904222347 37 180 3.2 11.3 0.00 0.00 0.00 31 1008.3
20260904221847 37 158 1.6 9.7 0.00 0.00 0.00 30 1008.3
20260904221347 37 248 0.0 4.8 0.00 0.00 0.00 32 1008.3
20260904220846 37 180 0.0 8.0 0.00 0.00 0.00 32 1008.3
20260904220346 37 90 1.6 8.0 0.00 0.00 0.00 30 1008.7
20260904220116 37 248 1.6 11.3 0.00 0.00 0.00 31 1008.7
20260904215346 37 180 3.2 12.9 0.00 0.00 0.00 32 1008.7
20260904214846 37 225 3.2 12.9 0.00 0.00 0.00 31 1009.0
20260904214346 37 225 1.6 14.5 0.00 0.00 0.00 32 1008.7
20260904214117 37 225 3.2 14.5 0.00 0.00 0.00 32 1008.7
20260904213350 37 203 1.6 9.7 0.00 0.00 0.00 31 1008.7
20260904213346 37 225 3.2 14.5 0.00 0.00 0.00 31 1009.0
20260904212345 37 270 1.6 17.7 0.00 0.00 0.00 32 1009.0
20260904211845 37 135 3.2 17.7 0.00 0.00 0.00 31 1009.0
20260904211615 37 180 1.6 6.4 0.00 0.00 0.00 31 1009.0
20260904210845 37 203 0.0 11.3 0.00 0.00 0.00 31 1009.3
20260904210346 37 225 3.2 12.9 0.00 0.00 0.00 30 1009.3
20260904210116 37 203 3.2 19.3 0.00 0.00 0.00 30 1009.3
20260904205346 37 180 4.8 19.3 0.00 0.00 0.00 30 1009.3
20260904204847 37 180 1.6 11.3 0.00 0.00 0.00 31 1009.3
20260904204345 37 180 1.6 11.3 0.00 0.00 0.00 32 1009.3
20260904203845 37 180 1.6 11.3 0.00 0.00 0.00 34 1009.7
20260904203346 37 180 1.6 11.3 0.00 0.00 0.00 34 1009.7
20260904202845 37 45 1.6 14.5 0.00 0.00 0.00 34 1009.7
20260904202346 37 180 1.6 14.5 0.00 0.00 0.00 35 1009.7
20260904201846 37 203 0.0 9.7 0.00 0.00 0.00 35 1010.0
20260904201345 37 338 1.6 9.7 0.00 0.00 0.00 35 1010.0
20260904200845 37 225 1.6 11.3 0.00 0.00 0.00 35 1010.5
20260904200616 37 203 1.6 12.9 0.00 0.00 0.00 35 1010.5
20260904195845 37 180 3.2 16.1 0.00 0.00 0.00 35 1010.5
20260904195351 36 158 1.6 12.9 0.00 0.00 0.00 37 1010.8
20260904195343 37 180 3.2 16.1 0.00 0.00 0.00 37 1010.5
20260904194844 36 180 0.0 8.0 0.00 0.00 0.00 37 1010.5
20260904193844 36 68 1.6 12.9 0.00 0.00 0.00 37 1010.5
20260904193617 36 158 3.2 12.9 0.00 0.00 0.00 37 1010.8
20260904192845 36 180 1.6 8.0 0.00 0.00 0.00 37 1010.8
20260904192345 36 0 3.2 14.5 0.00 0.00 0.00 37 1010.8
20260904191845 37 180 1.6 14.5 0.00 0.00 0.00 37 1010.8
20260904191616 37 180 3.2 11.3 0.00 0.00 0.00 37 1010.8
20260904190844 37 180 1.6 11.3 0.00 0.00 0.00 37 1011.1
20260904190344 37 180 1.6 11.3 0.00 0.00 0.00 37 1011.1
20260904185843 37 180 1.6 11.3 0.00 0.00 0.00 37 1011.1
20260904185614 36 180 0.0 12.9 0.00 0.00 0.00 39 1011.5
20260904184845 36 135 1.6 12.9 0.00 0.00 0.00 40 1011.5
20260904184345 36 158 3.2 12.9 0.00 0.00 0.00 39 1011.1
20260904183845 36 180 1.6 12.9 0.00 0.00 0.00 39 1011.5
20260904183345 36 270 1.6 11.3 0.00 0.00 0.00 39 1011.5
20260904182845 36 225 1.6 9.7 0.00 0.00 0.00 39 1011.5
20260904182344 36 180 1.6 12.9 0.00 0.00 0.00 40 1011.5
20260904181843 36 180 3.2 12.9 0.00 0.00 0.00 40 1011.8
20260904181343 36 203 1.6 11.3 0.00 0.00 0.00 40 1011.8
20260904180844 36 225 3.2 11.3 0.00 0.00 0.00 39 1011.8
20260904180344 36 248 1.6 14.5 0.00 0.00 0.00 40 1011.8
20260904175844 36 180 3.2 14.5 0.00 0.00 0.00 40 1011.8
20260904175344 36 135 3.2 12.9 0.00 0.00 0.00 40 1011.8
20260904174844 36 135 1.6 11.3 0.00 0.00 0.00 40 1012.5
20260904174344 36 225 1.6 11.3 0.00 0.00 0.00 40 1012.1
20260904173843 36 90 1.6 12.9 0.00 0.00 0.00 40 1012.1
20260904173343 36 180 1.6 12.9 0.00 0.00 0.00 40 1012.1
20260904172843 35 135 3.2 12.9 0.00 0.00 0.00 41 1012.1
20260904172342 35 180 3.2 14.5 0.00 0.00 0.00 41 1012.5
20260904171844 35 203 3.2 14.5 0.00 0.00 0.00 41 1012.1
20260904171344 35 203 3.2 14.5 0.00 0.00 0.00 41 1012.5
20260904170844 35 158 3.2 16.1 0.00 0.00 0.00 41 1012.1
20260904170344 35 248 3.2 16.1 0.00 0.00 0.00 43 1012.1
20260904165844 35 180 3.2 16.1 0.00 0.00 0.00 43 1012.1
20260904165346 35 158 3.2 14.5 0.00 0.00 0.00 44 1012.1
20260904165342 35 23 3.2 12.9 0.00 0.00 0.00 43 1011.8
20260904164342 35 180 3.2 14.5 0.00 0.00 0.00 44 1012.1
20260904163842 35 203 1.6 12.9 0.00 0.00 0.00 45 1011.8
20260904163343 34 158 1.6 11.3 0.00 0.00 0.00 44 1011.8
20260904162843 34 203 1.6 11.3 0.00 0.00 0.00 45 1012.1
20260904162343 33 180 3.2 11.3 0.00 0.00 0.00 46 1011.8
20260904161843 33 180 1.6 11.3 0.00 0.00 0.00 49 1012.1
20260904161344 32 45 1.6 14.5 0.00 0.00 0.00 50 1012.1
20260904160842 32 248 3.2 14.5 0.00 0.00 0.00 50 1012.1
20260904160342 32 180 3.2 14.5 0.00 0.00 0.00 50 1012.1
20260904155841 32 180 3.2 16.1 0.00 0.00 0.00 50 1012.1
20260904155612 32 180 3.2 16.1 0.00 0.00 0.00 51 1012.1
20260904154842 32 180 1.6 19.3 0.00 0.00 0.00 53 1011.8
20260904154343 32 225 3.2 19.3 0.00 0.00 0.00 53 1012.1
20260904153843 32 158 1.6 9.7 0.00 0.00 0.00 53 1011.8
20260904153343 32 158 1.6 9.7 0.00 0.00 0.00 53 1011.8
20260904152843 31 180 1.6 9.7 0.00 0.00 0.00 54 1011.8
20260904152341 31 68 1.6 9.7 0.00 0.00 0.00 55 1011.8
20260904151842 31 203 0.0 12.9 0.00 0.00 0.00 55 1011.8
20260904151341 31 180 1.6 12.9 0.00 0.00 0.00 55 1011.8
20260904150841 31 203 3.2 9.7 0.00 0.00 0.00 55 1011.8
20260904150343 31 180 0.0 9.7 0.00 0.00 0.00 55 1011.5
20260904150117 30 225 1.6 9.7 0.00 0.00 0.00 56 1011.8
20260904145842 30 180 0.0 9.7 0.00 0.00 0.00 56 1011.8
20260904144842 30 270 0.0 9.7 0.00 0.00 0.00 56 1011.5
20260904144343 30 203 1.6 9.7 0.00 0.00 0.00 58 1011.5
20260904143843 30 225 0.0 4.8 0.00 0.00 0.00 58 1011.5
20260904143340 30 180 0.0 8.0 0.00 0.00 0.00 59 1011.5
20260904143111 30 248 0.0 8.0 0.00 0.00 0.00 59 1011.1
20260904142341 29 225 0.0 6.4 0.00 0.00 0.00 60 1011.1
20260904142113 29 90 1.6 6.4 0.00 0.00 0.00 60 1011.1
20260904141342 29 180 0.0 8.0 0.00 0.00 0.00 61 1011.5
20260904141114 29 180 1.6 8.0 0.00 0.00 0.00 61 1011.1
20260904140342 28 180 1.6 11.3 0.00 0.00 0.00 61 1011.1
20260904135842 28 180 1.6 11.3 0.00 0.00 0.00 61 1010.8
20260904135340 28 135 1.6 11.3 0.00 0.00 0.00 61 1010.8
20260904135111 28 180 1.6 9.7 0.00 0.00 0.00 61 1010.8
20260904134341 28 203 1.6 9.7 0.00 0.00 0.00 61 1010.8
20260904133842 28 203 1.6 8.0 0.00 0.00 0.00 61 1010.8
20260904133342 28 203 1.6 8.0 0.00 0.00 0.00 61 1010.5
20260904132842 28 45 1.6 8.0 0.00 0.00 0.00 61 1010.8
20260904132342 28 158 1.6 4.8 0.00 0.00 0.00 61 1010.5
20260904131842 28 113 0.0 9.7 0.00 0.00 0.00 61 1010.8
20260904131342 28 45 1.6 9.7 0.00 0.00 0.00 61 1010.5
20260904130842 28 180 1.6 9.7 0.00 0.00 0.00 60 1010.5
20260904130341 28 45 0.0 4.8 0.00 0.00 0.00 60 1010.5
20260904125840 28 113 1.6 4.8 0.00 0.00 0.00 60 1010.0
20260904125341 28 135 0.0 3.2 0.00 0.00 0.00 60 1010.5
20260904124840 28 180 0.0 4.8 0.00 0.00 0.00 60 1010.0
20260904124346 28 180 0.0 4.8 0.00 0.00 0.00 59 1009.7
20260904124342 28 270 0.0 4.8 0.00 0.00 0.00 60 1010.0
20260904123342 28 113 1.6 4.8 0.00 0.00 0.00 59 1010.0
20260904122841 28 203 0.0 4.8 0.00 0.00 0.00 59 1009.7
20260904122342 28 90 1.6 6.4 0.00 0.00 0.00 59 1009.7
20260904122111 29 158 1.6 6.4 0.00 0.00 0.00 59 1009.7
20260904121340 29 45 0.0 4.8 0.00 0.00 0.00 58 1009.3
20260904120841 29 113 0.0 4.8 0.00 0.00 0.00 58 1009.7
20260904120341 29 180 0.0 4.8 0.00 0.00 0.00 58 1009.7
20260904115841 29 135 0.0 1.6 0.00 0.00 0.00 58 1009.7
20260904115342 29 225 0.0 3.2 0.00 0.00 0.00 56 1009.7
20260904114841 29 158 0.0 3.2 0.00 0.00 0.00 56 1010.0
20260904114341 29 135 0.0 1.6 0.00 0.00 0.00 56 1009.7
20260904113842 29 135 0.0 4.8 0.00 0.00 0.00 56 1009.7
20260904113341 29 158 0.0 4.8 0.00 0.00 0.00 56 1009.7
20260904112841 29 135 0.0 6.4 0.00 0.00 0.00 56 1009.7
20260904112340 29 203 0.0 6.4 0.00 0.00 0.00 56 1009.7
20260904111841 29 180 0.0 6.4 0.00 0.00 0.00 56 1009.7
20260904111341 29 203 0.0 6.4 0.00 0.00 0.00 55 1009.7
20260904111112 29 203 0.0 4.8 0.00 0.00 0.00 55 1009.7
20260904110341 29 180 0.0 3.2 0.00 0.00 0.00 55 1009.3
20260904105841 29 113 0.0 3.2 0.00 0.00 0.00 55 1009.3
20260904105342 29 0 0.0 1.6 0.00 0.00 0.00 55 1009.3
20260904104842 29 293 0.0 4.8 0.00 0.00 0.00 55 1009.7
20260904104340 29 45 0.0 4.8 0.00 0.00 0.00 55 1009.3
20260904103841 29 45 0.0 4.8 0.00 0.00 0.00 55 1009.7
20260904103340 29 248 0.0 6.4 0.00 0.00 0.00 55 1009.3
20260904102841 29 180 0.0 6.4 0.00 0.00 0.00 55 1009.3
20260904102613 29 180 0.0 6.4 0.00 0.00 0.00 55 1009.3
20260904101841 30 158 0.0 6.4 0.00 0.00 0.00 55 1009.3
20260904101342 30 158 0.0 6.4 0.00 0.00 0.00 55 1009.3
20260904100841 30 158 0.0 4.8 0.00 0.00 0.00 55 1009.3
20260904100342 30 158 0.0 4.8 0.00 0.00 0.00 55 1009.3
20260904095840 30 68 0.0 6.4 0.00 0.00 0.00 55 1009.0
20260904095340 30 180 0.0 8.0 0.00 0.00 0.00 55 1009.0
20260904094841 30 180 0.0 8.0 0.00 0.00 0.00 55 1009.3
20260904094340 30 180 0.0 8.0 0.00 0.00 0.00 55 1009.0
20260904093841 30 158 0.0 8.0 0.00 0.00 0.00 55 1009.0
20260904093341 30 248 0.0 0.0 0.00 0.00 0.00 54 1009.0
20260904092842 30 270 0.0 1.6 0.00 0.00 0.00 54 1009.0
20260904092341 30 135 0.0 1.6 0.00 0.00 0.00 54 1009.0
20260904092112 30 45 0.0 0.0 0.00 0.00 0.00 55 1009.0
20260904091342 30 23 0.0 0.0 0.00 0.00 0.00 54 1009.0
20260904090840 30 23 0.0 1.6 0.00 0.00 0.00 53 1009.3
20260904090610 30 45 0.0 1.6 0.00 0.00 0.00 54 1008.7
20260904085840 30 270 0.0 1.6 0.00 0.00 0.00 54 1009.0
20260904085341 30 180 0.0 0.0 0.00 0.00 0.00 55 1009.0
20260904084841 30 180 0.0 0.0 0.00 0.00 0.00 54 1009.3
20260904084613 30 180 0.0 3.2 0.00 0.00 0.00 54 1009.3
20260904083841 30 180 0.0 3.2 0.00 0.00 0.00 53 1009.3
20260904083342 30 180 0.0 3.2 0.00 0.00 0.00 54 1009.3
20260904082840 30 203 0.0 6.4 0.00 0.00 0.00 53 1009.3
20260904082341 30 180 1.6 6.4 0.00 0.00 0.00 54 1009.3
20260904081841 30 203 0.0 6.4 0.00 0.00 0.00 54 1009.0
20260904081340 30 158 1.6 9.7 0.00 0.00 0.00 54 1009.0
20260904080841 30 135 1.6 9.7 0.00 0.00 0.00 53 1009.3
20260904080341 30 180 1.6 11.3 0.00 0.00 0.00 54 1009.3
20260904075842 30 180 1.6 11.3 0.00 0.00 0.00 53 1009.0
20260904075341 30 158 1.6 9.7 0.00 0.00 0.00 53 1009.3
20260904074842 30 180 1.6 9.7 0.00 0.00 0.00 53 1009.3
20260904074340 30 180 1.6 11.3 0.00 0.00 0.00 53 1009.3
20260904073841 30 225 3.2 11.3 0.00 0.00 0.00 53 1009.0
20260904073339 30 225 1.6 12.9 0.00 0.00 0.00 51 1009.0
20260904072840 30 158 3.2 12.9 0.00 0.00 0.00 51 1009.0
20260904072341 30 225 1.6 11.3 0.00 0.00 0.00 51 1009.0
20260904071341 31 180 1.6 9.7 0.00 0.00 0.00 51 1009.0
20260904070841 31 203 1.6 9.7 0.00 0.00 0.00 51 1009.0
20260904070340 31 203 1.6 9.7 0.00 0.00 0.00 51 1009.0
20260904065839 31 90 1.6 9.7 0.00 0.00 0.00 50 1009.0
20260904065610 31 203 1.6 8.0 0.00 0.00 0.00 50 1008.7
20260904065558 31 203 1.6 11.3 0.00 0.00 0.00 50 1008.7
20260904064340 31 180 1.6 11.3 0.00 0.00 0.00 50 1008.7
20260904063840 31 180 3.2 11.3 0.00 0.00 0.00 50 1008.7
20260904063340 31 203 1.6 9.7 0.00 0.00 0.00 50 1008.7
20260904062841 31 203 3.2 9.7 0.00 0.00 0.00 50 1008.7
20260904062341 31 180 1.6 17.7 0.00 0.00 0.00 50 1008.7
20260904061840 31 180 3.2 17.7 0.00 0.00 0.00 49 1008.7
20260904061341 31 203 3.2 14.5 0.00 0.00 0.00 49 1008.7
20260904060839 32 180 3.2 12.9 0.00 0.00 0.00 49 1008.7
20260904060339 32 158 3.2 12.9 0.00 0.00 0.00 48 1008.7
20260904055840 32 135 3.2 14.5 0.00 0.00 0.00 48 1008.3
20260904055339 32 180 3.2 14.5 0.00 0.00 0.00 46 1008.3
20260904054840 32 180 3.2 14.5 0.00 0.00 0.00 46 1008.3
20260904054340 32 180 1.6 8.0 0.00 0.00 0.00 45 1008.3
20260904053840 32 180 1.6 11.3 0.00 0.00 0.00 45 1008.7
20260904053340 32 203 1.6 14.5 0.00 0.00 0.00 45 1008.3
20260904052840 32 158 3.2 14.5 0.00 0.00 0.00 45 1008.3
20260904052611 32 113 3.2 12.9 0.00 0.00 0.00 45 1008.3
20260904051839 32 158 0.0 8.0 0.00 0.00 0.00 44 1008.3
20260904051339 32 203 1.6 8.0 0.00 0.00 0.00 44 1008.3
20260904050838 32 180 1.6 4.8 0.00 0.00 0.00 43 1008.3
20260904050340 32 203 0.0 6.4 0.00 0.00 0.00 43 1008.0
20260904045840 32 203 1.6 8.0 0.00 0.00 0.00 43 1008.3
20260904045340 32 203 1.6 11.3 0.00 0.00 0.00 43 1008.3
20260904044845 32 225 1.6 11.3 0.00 0.00 0.00 43 1008.3
20260904044340 32 180 3.2 14.5 0.00 0.00 0.00 43 1008.7
20260904043838 32 180 3.2 14.5 0.00 0.00 0.00 41 1008.3
20260904043339 32 158 1.6 9.7 0.00 0.00 0.00 41 1008.3
20260904042838 32 203 1.6 9.7 0.00 0.00 0.00 41 1008.3
20260904042338 32 203 1.6 9.7 0.00 0.00 0.00 41 1008.3
20260904041840 32 203 1.6 9.7 0.00 0.00 0.00 41 1008.0
20260904041339 32 180 1.6 9.7 0.00 0.00 0.00 41 1008.0
20260904040844 32 270 0.0 6.4 0.00 0.00 0.00 43 1008.0
20260904040839 32 225 0.0 4.8 0.00 0.00 0.00 43 1008.0
20260904035839 32 180 0.0 6.4 0.00 0.00 0.00 43 1008.0
20260904035338 32 180 0.0 6.4 0.00 0.00 0.00 43 1008.0
20260904034840 32 158 1.6 6.4 0.00 0.00 0.00 43 1007.6
20260904034609 32 180 0.0 4.8 0.00 0.00 0.00 43 1007.6
20260904033842 32 135 1.6 8.0 0.00 0.00 0.00 43 1007.3
20260904033838 32 135 0.0 8.0 0.00 0.00 0.00 43 1007.6
20260904032838 32 203 0.0 6.4 0.00 0.00 0.00 41 1007.6
20260904032339 32 113 0.0 1.6 0.00 0.00 0.00 41 1007.3
20260904031840 32 113 0.0 3.2 0.00 0.00 0.00 41 1007.3
20260904031339 32 158 0.0 3.2 0.00 0.00 0.00 41 1007.3
20260904030837 32 248 0.0 4.8 0.00 0.00 0.00 41 1007.3
20260904030337 32 203 0.0 4.8 0.00 0.00 0.00 41 1007.3
20260904025838 33 158 0.0 1.6 0.00 0.00 0.00 41 1007.3
20260904025338 33 113 0.0 1.6 0.00 0.00 0.00 41 1007.3
20260904025109 33 338 0.0 3.2 0.00 0.00 0.00 41 1006.9
20260904024610 33 248 0.0 3.2 0.00 0.00 0.00 41 1006.9
20260904023839 33 113 0.0 4.8 0.00 0.00 0.00 40 1006.5
20260904023611 33 248 0.0 4.8 0.00 0.00 0.00 41 1006.9